2019-072F

Last updated on Thu Nov 14 2019 00:02:04 GMT+0000 (Coordinated Universal Time)

1 44708U 19072F 19317.44001450 -.00000112 00000-0 00000+0 0 9995 2 44708 97.3690 30.0511 0097848 310.8258 107.3332 15.43666802 1575

Satellite not in orbit

2019-072F